,,Stat5,,Stat1,,Stat2,,Stat3,,Stat4,,Wind1,,Wind1,
time,status,PA1M_AVG,status,PR1M_SUM,status,RH1M_AVG,status,SR1M_AVG,status,TA1M_AVG,status,W1dAve1m,status,W1sAve1m,
2003-04-30, 00:00:00,VALID,917.573,VALID,0,VALID,99.1712,VALID,0.373578,VALID,20.7475,VALID,2,VALID,0.881373,
2003-04-30, 00:01:00,VALID,917.573,VALID,0,VALID,99.1763,VALID,0.390559,VALID,20.7478,VALID,360,VALID,1.10112,
2003-04-30, 00:02:00,VALID,917.58,VALID,0,VALID,99.1928,VALID,0.40754,VALID,20.7443,VALID,2,VALID,0.667146,
2003-04-30, 00:03:00,VALID,917.585,VALID,0,VALID,99.208,VALID,0.373578,VALID,20.7513,VALID,24,VALID,0.690625,
2003-04-30, 00:04:00,VALID,917.576,VALID,0,VALID,99.2093,VALID,0.390559,VALID,20.7413,VALID,14,VALID,0.718539,
2003-04-30, 00:05:00,VALID,917.564,VALID,0,VALID,99.2424,VALID,0.373578,VALID,20.7485,VALID,9,VALID,0.473805,
2003-04-30, 00:06:00,VALID,917.539,VALID,0,VALID,99.2386,VALID,0.40754,VALID,20.7445,VALID,10,VALID,0.625893,
2003-04-30, 00:07:00,VALID,917.531,VALID,0,VALID,99.2576,VALID,0.441502,VALID,20.7448,VALID,14,VALID,0.673277,
2003-04-30, 00:08:00,VALID,917.527,VALID,0,VALID,99.278,VALID,0.40754,VALID,20.7607,VALID,16,VALID,0.501645,
2003-04-30, 00:09:00,VALID,917.517,VALID,0,VALID,99.2716,VALID,0.373578,VALID,20.7437,VALID,16,VALID,0.374414,
2003-04-30, 00:10:00,VALID,917.514,VALID,0,VALID,99.2729,VALID,0.543387,VALID,20.7435,VALID,16,VALID,0.435389,
2003-04-30, 00:11:00,VALID,917.5,VALID,0,VALID,99.2856,VALID,0.492444,VALID,20.7405,VALID,16,VALID,0.602407,
2003-04-30, 00:12:00,VALID,917.494,VALID,0,VALID,99.3136,VALID,0.492444,VALID,20.743,VALID,14,VALID,0.520765,
2003-04-30, 00:13:00,VALID,917.478,VALID,0,VALID,99.2869,VALID,0.492444,VALID,20.7639,VALID,17,VALID,0.772569,
2003-04-30, 00:14:00,VALID,917.471,VALID,0,VALID,99.2653,VALID,0.475463,VALID,20.737,VALID,23,VALID,0.786258,
2003-04-30, 00:15:00,VALID,917.46,VALID,0,VALID,99.2297,VALID,0.475463,VALID,20.74,VALID,10,VALID,0.812289,
2003-04-30, 00:16:00,VALID,917.468,VALID,0,VALID,99.2169,VALID,0.526406,VALID,20.74,VALID,10,VALID,0.576758,
2003-04-30, 00:17:00,VALID,917.469,VALID,0,VALID,99.2042,VALID,0.458482,VALID,20.7338,VALID,10,VALID,0.485008,
2003-04-30, 00:18:00,VALID,917.479,VALID,0,VALID,99.1839,VALID,0.526406,VALID,20.7507,VALID,10,VALID,0.447985,
2003-04-30, 00:19:00,VALID,917.471,VALID,0,VALID,99.1674,VALID,0.543387,VALID,20.7435,VALID,10,VALID,0.555099,
2003-04-30, 00:20:00,VALID,917.477,VALID,0,VALID,99.1343,VALID,0.458482,VALID,20.7424,VALID,10,VALID,0.523214,
2003-04-30, 00:21:00,VALID,917.493,VALID,0,VALID,99.1076,VALID,0.543387,VALID,20.7562,VALID,31,VALID,0.617588,
2003-04-30, 00:22:00,VALID,917.49,VALID,0,VALID,99.0631,VALID,0.543387,VALID,20.7497,VALID,28,VALID,0.723067,
2003-04-30, 00:23:00,VALID,917.505,VALID,0,VALID,99.0453,VALID,0.560367,VALID,20.7497,VALID,25,VALID,0.48125,
2003-04-30, 00:24:00,VALID,917.517,VALID,0,VALID,99.0275,VALID,0.560367,VALID,20.7666,VALID,32,VALID,0.352407,
2003-04-30, 00:25:00,VALID,917.516,VALID,0,VALID,98.9919,VALID,0.492444,VALID,20.7672,VALID,32,VALID,0.250633,
2003-04-30, 00:26:00,VALID,917.513,VALID,0,VALID,98.969,VALID,0.526406,VALID,20.7637,VALID,32,VALID,0.0154194,
2003-04-30, 00:27:00,VALID,917.519,VALID,0,VALID,98.9385,VALID,0.492444,VALID,20.7798,VALID,32,VALID,0.219835,
2003-04-30, 00:28:00,VALID,917.492,VALID,0,VALID,98.9079,VALID,0.526406,VALID,20.7893,VALID,32,VALID,0.198317,
2003-04-30, 00:29:00,VALID,917.478,VALID,0,VALID,98.8838,VALID,0.543387,VALID,20.7963,VALID,32,VALID,0.162584,
2003-04-30, 00:30:00,VALID,917.474,VALID,0,VALID,98.8596,VALID,0.509425,VALID,20.7796,VALID,32,VALID,0.0507813,
2003-04-30, 00:31:00,VALID,917.436,VALID,0,VALID,98.8355,VALID,0.543387,VALID,20.816,VALID,32,VALID,0,
2003-04-30, 00:32:00,VALID,917.402,VALID,0,VALID,98.8037,VALID,0.458482,VALID,20.8227,VALID,32,VALID,0.00102796,
2003-04-30, 00:33:00,VALID,917.375,VALID,0,VALID,98.7821,VALID,0.543387,VALID,20.8351,VALID,32,VALID,0,
2003-04-30, 00:34:00,VALID,917.343,VALID,0,VALID,98.7439,VALID,0.509425,VALID,20.8615,VALID,32,VALID,0,
2003-04-30, 00:35:00,VALID,917.309,VALID,0,VALID,98.6854,VALID,0.526406,VALID,20.8548,VALID,32,VALID,0.136418,
2003-04-30, 00:36:00,VALID,917.288,VALID,0,VALID,98.6485,VALID,0.509425,VALID,20.8615,VALID,32,VALID,0.214021,
2003-04-30, 00:37:00,VALID,917.268,VALID,0,VALID,98.6333,VALID,0.543387,VALID,20.8704,VALID,32,VALID,0.177539,
2003-04-30, 00:38:00,VALID,917.251,VALID,0,VALID,98.5659,VALID,0.526406,VALID,20.8642,VALID,32,VALID,0.236698,
2003-04-30, 00:39:00,VALID,917.238,VALID,0,VALID,98.4578,VALID,0.560367,VALID,20.8545,VALID,32,VALID,0.325802,
2003-04-30, 00:40:00,VALID,917.217,VALID,0,VALID,98.3802,VALID,0.543387,VALID,20.8321,VALID,32,VALID,0.338199,
2003-04-30, 00:41:00,VALID,917.192,VALID,0,VALID,98.3701,VALID,0.526406,VALID,20.8127,VALID,32,VALID,0.385417,
2003-04-30, 00:42:00,VALID,917.153,VALID,0,VALID,98.3662,VALID,0.526406,VALID,20.7893,VALID,32,VALID,0.396234,
2003-04-30, 00:43:00,VALID,917.117,VALID,0,VALID,98.4082,VALID,0.526406,VALID,20.7901,VALID,34,VALID,0.462204,
2003-04-30, 00:44:00,VALID,917.085,VALID,0,VALID,98.4171,VALID,0.560367,VALID,20.8008,VALID,39,VALID,0.397656,
2003-04-30, 00:45:00,VALID,917.045,VALID,0,VALID,98.4222,VALID,0.594329,VALID,20.7833,VALID,39,VALID,0.3144,
2003-04-30, 00:46:00,VALID,917.023,VALID,0,VALID,98.4362,VALID,0.509425,VALID,20.7801,VALID,39,VALID,0.298931,
2003-04-30, 00:47:00,VALID,916.997,VALID,0,VALID,98.4196,VALID,0.543387,VALID,20.7639,VALID,39,VALID,0.197368,
2003-04-30, 00:48:00,VALID,916.987,VALID,0,VALID,98.3942,VALID,0.526406,VALID,20.7542,VALID,39,VALID,0,
2003-04-30, 00:49:00,VALID,916.966,VALID,0,VALID,98.3993,VALID,0.526406,VALID,20.7545,VALID,39,VALID,0.0010016,
2003-04-30, 00:50:00,VALID,916.952,VALID,0,VALID,98.4108,VALID,0.560367,VALID,20.7418,VALID,39,VALID,0,
2003-04-30, 00:51:00,VALID,916.938,VALID,0,VALID,98.4349,VALID,0.509425,VALID,20.7251,VALID,39,VALID,0,
2003-04-30, 00:52:00,VALID,916.921,VALID,0,VALID,98.4654,VALID,0.560367,VALID,20.7483,VALID,39,VALID,0,
2003-04-30, 00:53:00,VALID,916.883,VALID,0,VALID,98.5048,VALID,0.526406,VALID,20.7316,VALID,39,VALID,0,
2003-04-30, 00:54:00,VALID,916.867,VALID,0,VALID,98.5265,VALID,0.577348,VALID,20.7416,VALID,39,VALID,0,
2003-04-30, 00:55:00,VALID,916.839,VALID,0,VALID,98.5328,VALID,0.577348,VALID,20.7443,VALID,39,VALID,0,
2003-04-30, 00:56:00,VALID,916.832,VALID,0,VALID,98.5583,VALID,0.543387,VALID,20.7381,VALID,39,VALID,0.0424679,
2003-04-30, 00:57:00,VALID,916.817,VALID,0,VALID,98.6371,VALID,0.543387,VALID,20.7744,VALID,39,VALID,0.262669,
2003-04-30, 00:58:00,VALID,916.81,VALID,0,VALID,98.6536,VALID,0.543387,VALID,20.7739,VALID,20,VALID,0.491602,
2003-04-30, 00:59:00,VALID,916.802,VALID,0,VALID,98.6435,VALID,0.509425,VALID,20.7707,VALID,10,VALID,0.471284,
2003-04-30, 01:00:00,VALID,916.782,VALID,0,VALID,98.6702,VALID,0.543387,VALID,20.7871,VALID,10,VALID,0.378606,
2003-04-30, 01:01:00,VALID,916.763,VALID,0,VALID,98.646,VALID,0.526406,VALID,20.7833,VALID,10,VALID,0.402961,
2003-04-30, 01:02:00,VALID,916.753,VALID,0,VALID,98.6485,VALID,0.475463,VALID,20.7804,VALID,10,VALID,0.50067,
2003-04-30, 01:03:00,VALID,916.726,VALID,0,VALID,98.6371,VALID,0.475463,VALID,20.7901,VALID,10,VALID,0.358373,
2003-04-30, 01:04:00,VALID,916.701,VALID,0,VALID,98.5964,VALID,0.526406,VALID,20.7672,VALID,10,VALID,0.418174,
2003-04-30, 01:05:00,VALID,916.681,VALID,0,VALID,98.6117,VALID,0.526406,VALID,20.7841,VALID,359,VALID,0.422461,
2003-04-30, 01:06:00,VALID,916.657,VALID,0,VALID,98.6613,VALID,0.526406,VALID,20.7804,VALID,353,VALID,0.42103,
2003-04-30, 01:07:00,VALID,916.632,VALID,0,VALID,98.707,VALID,0.458482,VALID,20.7866,VALID,349,VALID,0.37859,
2003-04-30, 01:08:00,VALID,916.627,VALID,0,VALID,98.7045,VALID,0.475463,VALID,20.7863,VALID,324,VALID,0.537623,
2003-04-30, 01:09:00,VALID,916.642,VALID,0,VALID,98.7363,VALID,0.458482,VALID,20.7895,VALID,360,VALID,0.504557,
2003-04-30, 01:10:00,VALID,916.635,VALID,0,VALID,98.749,VALID,0.475463,VALID,20.8097,VALID,1,VALID,0.606571,
2003-04-30, 01:11:00,VALID,916.648,VALID,0,VALID,98.763,VALID,0.509425,VALID,20.8097,VALID,4,VALID,0.428209,
2003-04-30, 01:12:00,VALID,916.65,VALID,0,VALID,98.7833,VALID,0.458482,VALID,20.7958,VALID,8,VALID,0.70625,
2003-04-30, 01:13:00,VALID,916.673,VALID,0,VALID,98.7821,VALID,0.526406,VALID,20.8157,VALID,8,VALID,0.763091,
2003-04-30, 01:14:00,VALID,916.689,VALID,0,VALID,98.8075,VALID,0.475463,VALID,20.8157,VALID,10,VALID,0.703125,
2003-04-30, 01:15:00,VALID,916.702,VALID,0,VALID,98.8342,VALID,0.526406,VALID,20.8222,VALID,3,VALID,0.496711,
2003-04-30, 01:16:00,VALID,916.716,VALID,0,VALID,98.81,VALID,0.492444,VALID,20.8157,VALID,1,VALID,0.557813,
2003-04-30, 01:17:00,VALID,916.706,VALID,0,VALID,98.8316,VALID,0.526406,VALID,20.8254,VALID,360,VALID,0.427284,
2003-04-30, 01:18:00,VALID,916.72,VALID,0,VALID,98.8673,VALID,0.475463,VALID,20.8351,VALID,7,VALID,0.530839,
2003-04-30, 01:19:00,VALID,916.713,VALID,0,VALID,98.8812,VALID,0.509425,VALID,20.8383,VALID,10,VALID,0.436328,
2003-04-30, 01:20:00,VALID,916.708,VALID,0,VALID,98.8965,VALID,0.492444,VALID,20.8416,VALID,10,VALID,0.53315,
2003-04-30, 01:21:00,VALID,916.709,VALID,0,VALID,98.9207,VALID,0.509425,VALID,20.8475,VALID,10,VALID,0.511824,
2003-04-30, 01:22:00,VALID,916.704,VALID,0,VALID,98.9207,VALID,0.526406,VALID,20.8677,VALID,10,VALID,0.38384,
2003-04-30, 01:23:00,VALID,916.703,VALID,0,VALID,98.9143,VALID,0.492444,VALID,20.855,VALID,349,VALID,0.448785,
2003-04-30, 01:24:00,VALID,916.706,VALID,0,VALID,98.8749,VALID,0.492444,VALID,20.8413,VALID,348,VALID,0.357372,
2003-04-30, 01:25:00,VALID,916.706,VALID,0,VALID,98.88,VALID,0.526406,VALID,20.834,VALID,2,VALID,0.691934,
2003-04-30, 01:26:00,VALID,916.695,VALID,0,VALID,98.8978,VALID,0.61131,VALID,20.8577,VALID,6,VALID,0.41543,
2003-04-30, 01:27:00,VALID,916.687,VALID,0,VALID,98.9156,VALID,0.61131,VALID,20.8502,VALID,7,VALID,0.604941,
2003-04-30, 01:28:00,VALID,916.672,VALID,0,VALID,98.8851,VALID,0.577348,VALID,20.8564,VALID,7,VALID,0.526316,
2003-04-30, 01:29:00,VALID,916.662,VALID,0,VALID,98.8762,VALID,0.560367,VALID,20.8764,VALID,5,VALID,0.308183,
2003-04-30, 01:30:00,VALID,916.64,VALID,0,VALID,98.8367,VALID,0.577348,VALID,20.8758,VALID,5,VALID,0.339509,
2003-04-30, 01:31:00,VALID,916.63,VALID,0,VALID,98.7935,VALID,0.543387,VALID,20.8801,VALID,5,VALID,0.319712,
2003-04-30, 01:32:00,VALID,916.614,VALID,0,VALID,98.7821,VALID,0.628291,VALID,20.8925,VALID,7,VALID,0.342928,
2003-04-30, 01:33:00,VALID,916.595,VALID,0,VALID,98.7312,VALID,0.560367,VALID,20.8694,VALID,2,VALID,0.577344,
2003-04-30, 01:34:00,VALID,916.587,VALID,0,VALID,98.6867,VALID,0.61131,VALID,20.892,VALID,10,VALID,0.53864,
2003-04-30, 01:35:00,VALID,916.574,VALID,0,VALID,98.674,VALID,0.577348,VALID,20.8793,VALID,22,VALID,0.543074,
2003-04-30, 01:36:00,VALID,916.581,VALID,0,VALID,98.6485,VALID,0.560367,VALID,20.8858,VALID,22,VALID,0.690173,
2003-04-30, 01:37:00,VALID,916.574,VALID,0,VALID,98.6447,VALID,0.577348,VALID,20.9281,VALID,26,VALID,0.493924,
2003-04-30, 01:38:00,VALID,916.583,VALID,0,VALID,98.6155,VALID,0.577348,VALID,20.9286,VALID,23,VALID,0.45653,
2003-04-30, 01:39:00,VALID,916.583,VALID,0,VALID,98.5608,VALID,0.594329,VALID,20.9316,VALID,22,VALID,0.317145,
2003-04-30, 01:40:00,VALID,916.582,VALID,0,VALID,98.4832,VALID,0.560367,VALID,20.9246,VALID,33,VALID,0.642383,
2003-04-30, 01:41:00,VALID,916.579,VALID,0,VALID,98.515,VALID,0.61131,VALID,20.9311,VALID,35,VALID,0.243454,
2003-04-30, 01:42:00,VALID,916.574,VALID,0,VALID,98.5888,VALID,0.628291,VALID,20.9578,VALID,35,VALID,0,
2003-04-30, 01:43:00,VALID,916.563,VALID,0,VALID,98.5646,VALID,0.594329,VALID,20.9766,VALID,35,VALID,0,
2003-04-30, 01:44:00,VALID,916.553,VALID,0,VALID,98.5506,VALID,0.543387,VALID,20.9836,VALID,22,VALID,0.0962054,
2003-04-30, 01:45:00,VALID,916.534,VALID,0,VALID,98.4146,VALID,0.61131,VALID,20.9535,VALID,339,VALID,0.54347,
2003-04-30, 01:46:00,VALID,916.505,VALID,0,VALID,98.3383,VALID,0.61131,VALID,20.9321,VALID,1,VALID,0.703125,
2003-04-30, 01:47:00,VALID,916.503,VALID,0,VALID,98.3395,VALID,0.628291,VALID,20.9311,VALID,17,VALID,0.829102,
2003-04-30, 01:48:00,VALID,916.484,VALID,0,VALID,98.3777,VALID,0.645272,VALID,20.9146,VALID,21,VALID,0.755912,
2003-04-30, 01:49:00,VALID,916.464,VALID,0,VALID,98.4464,VALID,0.577348,VALID,20.944,VALID,24,VALID,0.687922,
2003-04-30, 01:50:00,VALID,916.439,VALID,0,VALID,98.426,VALID,0.560367,VALID,20.9341,VALID,15,VALID,0.793586,
2003-04-30, 01:51:00,VALID,916.425,VALID,0,VALID,98.4578,VALID,0.61131,VALID,20.937,VALID,18,VALID,1.05122,
2003-04-30, 01:52:00,VALID,916.369,VALID,0,VALID,98.4858,VALID,0.577348,VALID,20.9478,VALID,23,VALID,1.11018,
2003-04-30, 01:53:00,VALID,916.331,VALID,0,VALID,98.4514,VALID,0.61131,VALID,20.9383,VALID,24,VALID,1.22804,
2003-04-30, 01:54:00,VALID,916.285,VALID,0,VALID,98.4654,VALID,0.509425,VALID,20.9149,VALID,28,VALID,1.22012,
2003-04-30, 01:55:00,VALID,916.229,VALID,0,VALID,98.4146,VALID,0.594329,VALID,20.8931,VALID,31,VALID,1.56567,
2003-04-30, 01:56:00,VALID,916.205,VALID,0,VALID,98.4489,VALID,0.560367,VALID,20.8632,VALID,27,VALID,1.60773,
2003-04-30, 01:57:00,VALID,916.17,VALID,0,VALID,98.4947,VALID,0.61131,VALID,20.8569,VALID,27,VALID,1.7243,
2003-04-30, 01:58:00,VALID,916.173,VALID,0,VALID,98.5557,VALID,0.543387,VALID,20.847,VALID,21,VALID,1.58594,
2003-04-30, 01:59:00,VALID,916.182,VALID,0,VALID,98.5417,VALID,0.577348,VALID,20.8278,VALID,24,VALID,1.49119,
2003-04-30, 02:00:00,VALID,916.173,VALID,0,VALID,98.5214,VALID,0.594329,VALID,20.8117,VALID,12,VALID,1.8347,
2003-04-30, 02:01:00,VALID,916.179,VALID,0,VALID,98.5392,VALID,0.594329,VALID,20.8052,VALID,27,VALID,1.49688,
2003-04-30, 02:02:00,VALID,916.17,VALID,0,VALID,98.5633,VALID,0.543387,VALID,20.792,VALID,21,VALID,1.27682,
2003-04-30, 02:03:00,VALID,916.156,VALID,0,VALID,98.5125,VALID,0.577348,VALID,20.7853,VALID,24,VALID,1.69236,
2003-04-30, 02:04:00,VALID,916.137,VALID,0,VALID,98.5379,VALID,0.543387,VALID,20.7696,VALID,23,VALID,1.26665,
2003-04-30, 02:05:00,VALID,916.127,VALID,0,VALID,98.5252,VALID,0.577348,VALID,20.7467,VALID,11,VALID,1.31793,
2003-04-30, 02:06:00,VALID,916.118,VALID,0,VALID,98.5048,VALID,0.594329,VALID,20.7435,VALID,9,VALID,1.40104,
2003-04-30, 02:07:00,VALID,916.103,VALID,0,VALID,98.5176,VALID,0.577348,VALID,20.7181,VALID,16,VALID,1.65646,
2003-04-30, 02:08:00,VALID,916.1,VALID,0,VALID,98.501,VALID,0.594329,VALID,20.6952,VALID,9,VALID,1.42871,
2003-04-30, 02:09:00,VALID,916.073,VALID,0,VALID,98.5252,VALID,0.628291,VALID,20.6763,VALID,360,VALID,1.43011,
2003-04-30, 02:10:00,VALID,916.06,VALID,0,VALID,98.5888,VALID,0.526406,VALID,20.6659,VALID,358,VALID,1.26727,
2003-04-30, 02:11:00,VALID,916.041,VALID,0,VALID,98.6193,VALID,0.577348,VALID,20.64,VALID,358,VALID,1.66488,
2003-04-30, 02:12:00,VALID,916.012,VALID,0,VALID,98.6969,VALID,0.577348,VALID,20.6367,VALID,1,VALID,0.998661,
2003-04-30, 02:13:00,VALID,915.996,VALID,0,VALID,98.7325,VALID,0.61131,VALID,20.627,VALID,355,VALID,1.08894,
2003-04-30, 02:14:00,VALID,915.989,VALID,0,VALID,98.7655,VALID,0.543387,VALID,20.6179,VALID,347,VALID,0.814145,
2003-04-30, 02:15:00,VALID,915.981,VALID,0,VALID,98.7833,VALID,0.543387,VALID,20.588,VALID,16,VALID,1.4707,
2003-04-30, 02:16:00,VALID,915.986,VALID,0,VALID,98.8189,VALID,0.628291,VALID,20.6014,VALID,352,VALID,0.732264,
2003-04-30, 02:17:00,VALID,915.986,VALID,0,VALID,98.852,VALID,0.577348,VALID,20.5952,VALID,333,VALID,1.29286,
2003-04-30, 02:18:00,VALID,915.99,VALID,0,VALID,98.9486,VALID,0.577348,VALID,20.582,VALID,326,VALID,0.944285,
2003-04-30, 02:19:00,VALID,915.978,VALID,0,VALID,98.997,VALID,0.560367,VALID,20.6087,VALID,325,VALID,0.401259,
2003-04-30, 02:20:00,VALID,915.976,VALID,0,VALID,99.0326,VALID,0.560367,VALID,20.5723,VALID,326,VALID,0.311298,
2003-04-30, 02:21:00,VALID,915.974,VALID,0,VALID,99.0758,VALID,0.594329,VALID,20.5492,VALID,358,VALID,0.357052,
2003-04-30, 02:22:00,VALID,915.95,VALID,0,VALID,99.105,VALID,0.594329,VALID,20.5661,VALID,347,VALID,0.114258,
2003-04-30, 02:23:00,VALID,915.947,VALID,0,VALID,99.1406,VALID,0.526406,VALID,20.5631,VALID,323,VALID,0.173142,
2003-04-30, 02:24:00,VALID,915.943,VALID,0,VALID,99.1953,VALID,0.662252,VALID,20.5626,VALID,281,VALID,0.0886102,
2003-04-30, 02:25:00,VALID,915.956,VALID,0,VALID,99.2309,VALID,0.645272,VALID,20.5616,VALID,281,VALID,0.0388569,
2003-04-30, 02:26:00,VALID,915.963,VALID,0,VALID,99.2843,VALID,0.61131,VALID,20.5559,VALID,281,VALID,0,
2003-04-30, 02:27:00,VALID,915.969,VALID,0,VALID,99.3136,VALID,0.61131,VALID,20.5686,VALID,281,VALID,0,
2003-04-30, 02:28:00,VALID,915.994,VALID,0,VALID,99.339,VALID,0.61131,VALID,20.5718,VALID,281,VALID,0,
2003-04-30, 02:29:00,VALID,915.987,VALID,0,VALID,99.3428,VALID,0.594329,VALID,20.5791,VALID,281,VALID,0.108984,
2003-04-30, 02:30:00,VALID,915.987,VALID,0,VALID,99.3428,VALID,0.61131,VALID,20.5723,VALID,280,VALID,0.0572213,
2003-04-30, 02:31:00,VALID,915.982,VALID,0,VALID,99.3466,VALID,0.560367,VALID,20.5532,VALID,280,VALID,0.0734797,
2003-04-30, 02:32:00,VALID,915.945,VALID,0,VALID,99.3301,VALID,0.594329,VALID,20.5333,VALID,170,VALID,0.304688,
2003-04-30, 02:33:00,VALID,915.937,VALID,0,VALID,99.3276,VALID,0.61131,VALID,20.5106,VALID,108,VALID,0.0711806,
2003-04-30, 02:34:00,VALID,915.908,VALID,0,VALID,99.3301,VALID,0.560367,VALID,20.5012,VALID,108,VALID,0,
2003-04-30, 02:35:00,VALID,915.892,VALID,0,VALID,99.3377,VALID,0.577348,VALID,20.4661,VALID,108,VALID,0,
2003-04-30, 02:36:00,VALID,915.877,VALID,0,VALID,99.3428,VALID,0.560367,VALID,20.4492,VALID,108,VALID,0,
2003-04-30, 02:37:00,VALID,915.872,VALID,0,VALID,99.3416,VALID,0.543387,VALID,20.4397,VALID,108,VALID,0,
2003-04-30, 02:38:00,VALID,915.857,VALID,0,VALID,99.3581,VALID,0.526406,VALID,20.4198,VALID,130,VALID,0.112664,
2003-04-30, 02:39:00,VALID,915.855,VALID,0,VALID,99.3416,VALID,0.526406,VALID,20.4054,VALID,205,VALID,0.450247,
2003-04-30, 02:40:00,VALID,915.853,VALID,0,VALID,99.3556,VALID,0.441502,VALID,20.3828,VALID,212,VALID,0.245089,
2003-04-30, 02:41:00,VALID,915.849,VALID,0,VALID,99.3695,VALID,0.475463,VALID,20.3798,VALID,211,VALID,0.209936,
2003-04-30, 02:42:00,VALID,915.832,VALID,0,VALID,99.3695,VALID,0.441502,VALID,20.3534,VALID,230,VALID,0.358964,
2003-04-30, 02:43:00,VALID,915.817,VALID,0,VALID,99.3721,VALID,0.492444,VALID,20.3567,VALID,235,VALID,0.148633,
2003-04-30, 02:44:00,VALID,915.812,VALID,0,VALID,99.367,VALID,0.441502,VALID,20.3373,VALID,235,VALID,0.236275,
2003-04-30, 02:45:00,VALID,915.795,VALID,0,VALID,99.3988,VALID,0.475463,VALID,20.3639,VALID,297,VALID,0.454181,
2003-04-30, 02:46:00,VALID,915.769,VALID,0,VALID,99.4217,VALID,0.458482,VALID,20.3607,VALID,297,VALID,0.0801809,
2003-04-30, 02:47:00,VALID,915.747,VALID,0,VALID,99.4115,VALID,0.441502,VALID,20.3375,VALID,297,VALID,0.00173611,
2003-04-30, 02:48:00,VALID,915.718,VALID,0,VALID,99.4001,VALID,0.458482,VALID,20.3442,VALID,269,VALID,0.123998,
2003-04-30, 02:49:00,VALID,915.703,VALID,0,VALID,99.4395,VALID,0.458482,VALID,20.3442,VALID,217,VALID,0.127956,
2003-04-30, 02:50:00,VALID,915.7,VALID,0,VALID,99.456,VALID,0.475463,VALID,20.3639,VALID,217,VALID,0.156641,
2003-04-30, 02:51:00,VALID,915.702,VALID,0,VALID,99.4802,VALID,0.492444,VALID,20.3666,VALID,221,VALID,0.177998,
2003-04-30, 02:52:00,VALID,915.709,VALID,0,VALID,99.498,VALID,0.40754,VALID,20.3736,VALID,227,VALID,0.38713,
2003-04-30, 02:53:00,VALID,915.711,VALID,0,VALID,99.5183,VALID,0.424521,VALID,20.3801,VALID,225,VALID,0.303454,
2003-04-30, 02:54:00,VALID,915.7,VALID,0,VALID,99.5425,VALID,0.475463,VALID,20.389,VALID,223,VALID,0.420759,
2003-04-30, 02:55:00,VALID,915.671,VALID,0,VALID,99.5399,VALID,0.458482,VALID,20.3957,VALID,216,VALID,0.467348,
2003-04-30, 02:56:00,VALID,915.655,VALID,0,VALID,99.5298,VALID,0.475463,VALID,20.3995,VALID,214,VALID,0.52097,
2003-04-30, 02:57:00,VALID,915.626,VALID,0,VALID,99.5425,VALID,0.424521,VALID,20.3733,VALID,245,VALID,0.523242,
2003-04-30, 02:58:00,VALID,915.606,VALID,0,VALID,99.5743,VALID,0.475463,VALID,20.3933,VALID,224,VALID,0.320735,
2003-04-30, 02:59:00,VALID,915.586,VALID,0,VALID,99.5794,VALID,0.441502,VALID,20.3696,VALID,227,VALID,0.381546,
2003-04-30, 03:00:00,VALID,915.57,VALID,0,VALID,99.5895,VALID,0.475463,VALID,20.3766,VALID,231,VALID,0.00534539,
2003-04-30, 03:01:00,VALID,915.558,VALID,0,VALID,99.6061,VALID,0.509425,VALID,20.3893,VALID,234,VALID,0.171875,
2003-04-30, 03:02:00,VALID,915.534,VALID,0,VALID,99.6111,VALID,0.492444,VALID,20.3766,VALID,236,VALID,0.271034,
2003-04-30, 03:03:00,VALID,915.531,VALID,0,VALID,99.6213,VALID,0.441502,VALID,20.3893,VALID,232,VALID,0.342272,
2003-04-30, 03:04:00,VALID,915.548,VALID,0,VALID,99.6213,VALID,0.509425,VALID,20.3828,VALID,230,VALID,0.0421875,
2003-04-30, 03:05:00,VALID,915.541,VALID,0,VALID,99.6277,VALID,0.441502,VALID,20.3763,VALID,230,VALID,0,
2003-04-30, 03:06:00,VALID,915.546,VALID,0,VALID,99.6277,VALID,0.492444,VALID,20.3699,VALID,230,VALID,0,
2003-04-30, 03:07:00,VALID,915.557,VALID,0,VALID,99.6506,VALID,0.458482,VALID,20.3836,VALID,230,VALID,0,
2003-04-30, 03:08:00,VALID,915.562,VALID,0,VALID,99.6582,VALID,0.424521,VALID,20.3766,VALID,230,VALID,0,
2003-04-30, 03:09:00,VALID,915.572,VALID,0,VALID,99.6658,VALID,0.475463,VALID,20.379,VALID,230,VALID,0,
2003-04-30, 03:10:00,VALID,915.567,VALID,0,VALID,99.6887,VALID,0.492444,VALID,20.3865,VALID,230,VALID,0,
2003-04-30, 03:11:00,VALID,915.573,VALID,0,VALID,99.6836,VALID,0.492444,VALID,20.3997,VALID,230,VALID,0,
2003-04-30, 03:12:00,VALID,915.566,VALID,0,VALID,99.6862,VALID,0.492444,VALID,20.3928,VALID,230,VALID,0,
2003-04-30, 03:13:00,VALID,915.568,VALID,0,VALID,99.6811,VALID,0.441502,VALID,20.3833,VALID,192,VALID,0.272382,
2003-04-30, 03:14:00,VALID,915.579,VALID,0,VALID,99.6811,VALID,0.458482,VALID,20.3801,VALID,170,VALID,0.162007,
2003-04-30, 03:15:00,VALID,915.589,VALID,0,VALID,99.6925,VALID,0.475463,VALID,20.3836,VALID,170,VALID,0.0609809,
2003-04-30, 03:16:00,VALID,915.588,VALID,0,VALID,99.6925,VALID,0.458482,VALID,20.3733,VALID,170,VALID,0.0284455,
2003-04-30, 03:17:00,VALID,915.601,VALID,0,VALID,99.704,VALID,0.475463,VALID,20.3841,VALID,170,VALID,0.0489865,
2003-04-30, 03:18:00,VALID,915.608,VALID,0,VALID,99.7014,VALID,0.390559,VALID,20.3602,VALID,170,VALID,0,
2003-04-30, 03:19:00,VALID,915.604,VALID,0,VALID,99.7078,VALID,0.458482,VALID,20.3744,VALID,170,VALID,0,
2003-04-30, 03:20:00,VALID,915.62,VALID,0,VALID,99.7091,VALID,0.424521,VALID,20.3607,VALID,170,VALID,0,
2003-04-30, 03:21:00,VALID,915.617,VALID,0,VALID,99.7078,VALID,0.475463,VALID,20.3539,VALID,170,VALID,0,
2003-04-30, 03:22:00,VALID,915.626,VALID,0,VALID,99.7167,VALID,0.441502,VALID,20.3644,VALID,170,VALID,0,
2003-04-30, 03:23:00,VALID,915.625,VALID,0,VALID,99.6925,VALID,0.441502,VALID,20.3512,VALID,170,VALID,0,
2003-04-30, 03:24:00,VALID,915.616,VALID,0,VALID,99.6798,VALID,0.492444,VALID,20.3213,VALID,144,VALID,0.359581,
2003-04-30, 03:25:00,VALID,915.607,VALID,0,VALID,99.6671,VALID,0.543387,VALID,20.3079,VALID,142,VALID,0.295117,
2003-04-30, 03:26:00,VALID,915.599,VALID,0,VALID,99.6773,VALID,0.492444,VALID,20.3017,VALID,142,VALID,0.107052,
2003-04-30, 03:27:00,VALID,915.601,VALID,0,VALID,99.6811,VALID,0.526406,VALID,20.2818,VALID,142,VALID,0.189189,
2003-04-30, 03:28:00,VALID,915.58,VALID,0,VALID,99.6773,VALID,0.509425,VALID,20.2721,VALID,142,VALID,0.206414,
2003-04-30, 03:29:00,VALID,915.579,VALID,0,VALID,99.6773,VALID,0.458482,VALID,20.2492,VALID,128,VALID,0.336806,
2003-04-30, 03:30:00,VALID,915.581,VALID,0,VALID,99.6824,VALID,0.492444,VALID,20.2664,VALID,115,VALID,0.0901442,
2003-04-30, 03:31:00,VALID,915.568,VALID,0,VALID,99.6951,VALID,0.509425,VALID,20.2594,VALID,115,VALID,0.112965,
2003-04-30, 03:32:00,VALID,915.58,VALID,0,VALID,99.704,VALID,0.560367,VALID,20.2664,VALID,115,VALID,0.0919922,
2003-04-30, 03:33:00,VALID,915.583,VALID,0,VALID,99.7065,VALID,0.594329,VALID,20.2631,VALID,62,VALID,0.467272,
2003-04-30, 03:34:00,VALID,915.605,VALID,0,VALID,99.6874,VALID,0.543387,VALID,20.2238,VALID,33,VALID,0.786595,
2003-04-30, 03:35:00,VALID,915.619,VALID,0,VALID,99.662,VALID,0.492444,VALID,20.179,VALID,32,VALID,0.73273,
2003-04-30, 03:36:00,VALID,915.646,VALID,0,VALID,99.6518,VALID,0.560367,VALID,20.1624,VALID,34,VALID,0.58817,